User: anonymous   Login
Location: Unspecified
(0.0000°N, 0.0000°E)
Time: 15:40:07
(UTC+00:00)
Language:

NEE 01 PEGASUS - Orbit

View from above orbital plane
View from above orbital plane
View from above satellite
View from above satellite

Ground track
Ground track

The orbit data is extracted from the following two-line orbital elements,

1 39151U 13018B   18109.20746300  .00000193  00000-0  32570-4 0  9997
2 39151  97.9730 203.6973 0018160 136.6211 223.6433 14.79880930268796
Epoch (UTC): 19 April 2018 04:58:44
Eccentricity: 0.0018160
inclination: 97.9730°
perigee height: 617 km
apogee height: 642 km
right ascension of ascending node: 203.6973°
argument of perigee: 136.6211°
revolutions per day: 14.79880930
mean anomaly at epoch: 223.6433°
orbit number at epoch: 26879

The dashed part of the orbit path shows where the satellite is in the earth's shadow,  

DLR